Time,TemperatureF,DewpointF,PressureIn,WindDirection,WindDirectionDegrees,WindSpeedMPH,WindSpeedGustMPH,Humidity,HourlyPrecipIn,Conditions,Clouds,dailyrainin,SolarRadiationWatts/m^2,SoftwareType,DateUTC
2013-01-06 00:00:00,10.9,7.0,30.25,West,271,3.0,6.0,84,0.00,,,0.00,0.0,meteohub,2013-01-06 06:00:00,
2013-01-06 00:05:00,10.9,7.0,30.25,WNW,289,3.0,6.0,84,0.00,,,0.00,0.0,meteohub,2013-01-06 06:05:00,
2013-01-06 00:10:00,10.9,7.0,30.25,West,259,1.0,5.0,84,0.00,,,0.00,0.0,meteohub,2013-01-06 06:10:00,
2013-01-06 00:15:00,10.8,6.8,30.25,WNW,292,2.0,6.0,84,0.00,,,0.00,0.0,meteohub,2013-01-06 06:15:00,
2013-01-06 00:20:00,10.8,6.8,30.25,West,279,2.0,6.0,84,0.00,,,0.00,0.0,meteohub,2013-01-06 06:20:00,
2013-01-06 00:25:00,10.8,6.8,30.25,WSW,241,2.0,6.0,84,0.00,,,0.00,0.0,meteohub,2013-01-06 06:25:00,
2013-01-06 00:31:00,10.8,6.8,30.25,West,275,3.0,5.0,84,0.00,,,0.00,0.0,meteohub,2013-01-06 06:31:00,
2013-01-06 00:36:00,10.6,6.6,30.25,West,277,1.0,5.0,84,0.00,,,0.00,0.0,meteohub,2013-01-06 06:36:00,
2013-01-06 00:41:00,10.6,6.6,30.24,West,263,0.0,5.0,84,0.00,,,0.00,0.0,meteohub,2013-01-06 06:41:00,
2013-01-06 00:46:00,10.6,6.6,30.24,WNW,283,2.0,5.0,84,0.00,,,0.00,0.0,meteohub,2013-01-06 06:46:00,
2013-01-06 00:51:00,10.4,6.6,30.24,WNW,284,0.0,4.0,84,0.00,,,0.00,0.0,meteohub,2013-01-06 06:51:00,
2013-01-06 00:56:00,10.2,6.4,30.24,WNW,284,0.0,4.0,84,0.00,,,0.00,0.0,meteohub,2013-01-06 06:56:00,
2013-01-06 01:01:00,10.2,6.4,30.24,WNW,284,0.0,2.0,84,0.00,,,0.00,0.0,meteohub,2013-01-06 07:01:00,
2013-01-06 01:06:00,10.0,6.3,30.25,West,277,0.0,3.0,84,0.00,,,0.00,0.0,meteohub,2013-01-06 07:06:00,
2013-01-06 01:11:00,9.9,6.1,30.25,West,277,0.0,3.0,84,0.00,,,0.00,0.0,meteohub,2013-01-06 07:11:00,
2013-01-06 01:16:00,9.9,6.1,30.25,West,277,1.0,3.0,84,0.00,,,0.00,0.0,meteohub,2013-01-06 07:16:00,
2013-01-06 01:21:00,9.7,6.1,30.25,West,278,0.0,2.0,85,0.00,,,0.00,0.0,meteohub,2013-01-06 07:21:00,
2013-01-06 01:26:00,9.7,6.1,30.25,West,278,0.0,2.0,85,0.00,,,0.00,0.0,meteohub,2013-01-06 07:26:00,
2013-01-06 01:31:00,9.3,5.5,30.25,West,265,0.0,2.0,84,0.00,,,0.00,0.0,meteohub,2013-01-06 07:31:00,
2013-01-06 01:36:00,9.1,5.5,30.26,West,260,0.0,3.0,85,0.00,,,0.00,0.0,meteohub,2013-01-06 07:36:00,
2013-01-06 01:41:00,9.1,5.5,30.26,WNW,300,0.0,3.0,85,0.00,,,0.00,0.0,meteohub,2013-01-06 07:41:00,
2013-01-06 01:46:00,9.0,5.4,30.26,WSW,257,1.0,3.0,85,0.00,,,0.00,0.0,meteohub,2013-01-06 07:46:00,
2013-01-06 01:51:00,9.0,5.7,30.26,WNW,302,2.0,4.0,86,0.00,,,0.00,0.0,meteohub,2013-01-06 07:51:00,
2013-01-06 01:56:00,9.0,5.7,30.26,West,279,1.0,4.0,86,0.00,,,0.00,0.0,meteohub,2013-01-06 07:56:00,
2013-01-06 02:01:00,9.0,5.7,30.26,West,263,0.0,4.0,86,0.00,,,0.00,0.0,meteohub,2013-01-06 08:01:00,
2013-01-06 02:06:00,8.8,5.7,30.26,West,263,0.0,2.0,87,0.00,,,0.00,0.0,meteohub,2013-01-06 08:06:00,
2013-01-06 02:11:00,8.8,5.7,30.26,West,263,1.0,2.0,87,0.00,,,0.00,0.0,meteohub,2013-01-06 08:11:00,
2013-01-06 02:16:00,8.8,5.7,30.26,West,263,0.0,2.0,87,0.00,,,0.00,0.0,meteohub,2013-01-06 08:16:00,
2013-01-06 02:21:00,8.8,5.7,30.27,West,263,0.0,2.0,87,0.00,,,0.00,0.0,meteohub,2013-01-06 08:21:00,
2013-01-06 02:26:00,8.8,5.9,30.27,WNW,293,0.0,3.0,88,0.00,,,0.00,0.0,meteohub,2013-01-06 08:26:00,
2013-01-06 02:31:00,8.8,5.9,30.28,WNW,293,1.0,3.0,88,0.00,,,0.00,0.0,meteohub,2013-01-06 08:31:00,
2013-01-06 02:36:00,9.0,6.1,30.28,West,270,0.0,3.0,88,0.00,,,0.00,0.0,meteohub,2013-01-06 08:36:00,
2013-01-06 02:41:00,9.0,6.4,30.28,West,270,0.0,3.0,89,0.00,,,0.00,0.0,meteohub,2013-01-06 08:41:00,
2013-01-06 02:46:00,9.0,6.4,30.28,West,270,0.0,3.0,89,0.00,,,0.00,0.0,meteohub,2013-01-06 08:46:00,
2013-01-06 02:51:00,9.1,6.6,30.27,West,270,0.0,1.0,89,0.00,,,0.00,0.0,meteohub,2013-01-06 08:51:00,
2013-01-06 02:56:00,9.1,6.6,30.27,West,270,1.0,2.0,89,0.00,,,0.00,0.0,meteohub,2013-01-06 08:56:00,
2013-01-06 03:01:00,9.5,7.2,30.27,West,269,1.0,3.0,90,0.00,,,0.00,0.0,meteohub,2013-01-06 09:01:00,
2013-01-06 03:06:00,9.9,7.5,30.27,West,269,1.0,3.0,90,0.00,,,0.00,0.0,meteohub,2013-01-06 09:06:00,
2013-01-06 03:11:00,10.2,8.1,30.27,WSW,257,0.0,3.0,91,0.00,,,0.00,0.0,meteohub,2013-01-06 09:11:00,
2013-01-06 03:16:00,10.4,8.2,30.26,WSW,257,0.0,2.0,91,0.00,,,0.00,0.0,meteohub,2013-01-06 09:16:00,
2013-01-06 03:21:00,10.6,8.4,30.26,WSW,257,0.0,2.0,91,0.00,,,0.00,0.0,meteohub,2013-01-06 09:21:00,
2013-01-06 03:26:00,10.9,8.8,30.26,WSW,257,0.0,0.0,91,0.00,,,0.00,0.0,meteohub,2013-01-06 09:26:00,
2013-01-06 03:31:00,10.9,8.8,30.25,WSW,257,0.0,1.0,91,0.00,,,0.00,0.0,meteohub,2013-01-06 09:31:00,
2013-01-06 03:36:00,11.1,9.0,30.25,WSW,257,0.0,1.0,91,0.00,,,0.00,0.0,meteohub,2013-01-06 09:36:00,
2013-01-06 03:41:00,11.5,9.3,30.26,WSW,257,0.0,2.0,91,0.00,,,0.00,0.0,meteohub,2013-01-06 09:41:00,
2013-01-06 03:46:00,11.7,9.5,30.27,WSW,257,0.0,2.0,91,0.00,,,0.00,0.0,meteohub,2013-01-06 09:46:00,
2013-01-06 03:51:00,11.7,9.5,30.27,WSW,257,0.0,2.0,91,0.00,,,0.00,0.0,meteohub,2013-01-06 09:51:00,
2013-01-06 03:56:00,11.8,9.7,30.27,WSW,257,0.0,1.0,91,0.00,,,0.00,0.0,meteohub,2013-01-06 09:56:00,
2013-01-06 04:01:00,11.8,9.7,30.27,WSW,257,0.0,1.0,91,0.00,,,0.00,0.0,meteohub,2013-01-06 10:01:00,
2013-01-06 04:06:00,12.0,9.9,30.27,WSW,257,0.0,0.0,91,0.00,,,0.00,0.0,meteohub,2013-01-06 10:06:00,
2013-01-06 04:11:00,12.2,10.0,30.27,WSW,257,0.0,0.0,91,0.00,,,0.00,0.0,meteohub,2013-01-06 10:11:00,
2013-01-06 04:16:00,12.4,10.2,30.27,WSW,257,0.0,0.0,91,0.00,,,0.00,0.0,meteohub,2013-01-06 10:16:00,
2013-01-06 04:21:00,12.4,10.0,30.27,WSW,257,0.0,0.0,90,0.00,,,0.00,0.0,meteohub,2013-01-06 10:21:00,
2013-01-06 04:26:00,12.6,10.4,30.27,WSW,257,0.0,2.0,91,0.00,,,0.00,0.0,meteohub,2013-01-06 10:26:00,
2013-01-06 04:31:00,12.6,10.4,30.27,WSW,257,0.0,2.0,91,0.00,,,0.00,0.0,meteohub,2013-01-06 10:31:00,
2013-01-06 04:36:00,12.6,10.4,30.27,WSW,257,0.0,2.0,91,0.00,,,0.00,0.0,meteohub,2013-01-06 10:36:00,
2013-01-06 04:41:00,12.6,10.2,30.27,WSW,257,0.0,0.0,90,0.00,,,0.00,0.0,meteohub,2013-01-06 10:41:00,
2013-01-06 04:46:00,12.6,10.2,30.27,WSW,257,0.0,0.0,90,0.00,,,0.00,0.0,meteohub,2013-01-06 10:46:00,
2013-01-06 04:51:00,12.6,10.2,30.27,WSW,257,0.0,0.0,90,0.00,,,0.00,0.0,meteohub,2013-01-06 10:51:00,
2013-01-06 04:56:00,12.6,10.2,30.27,WSW,257,0.0,0.0,90,0.00,,,0.00,0.0,meteohub,2013-01-06 10:56:00,
2013-01-06 05:01:00,12.7,10.4,30.27,WSW,257,0.0,0.0,90,0.00,,,0.00,0.0,meteohub,2013-01-06 11:01:00,
2013-01-06 05:06:00,12.7,10.4,30.26,WSW,257,0.0,0.0,90,0.00,,,0.00,0.0,meteohub,2013-01-06 11:06:00,
2013-01-06 05:11:00,12.6,10.2,30.26,WSW,257,0.0,0.0,90,0.00,,,0.00,0.0,meteohub,2013-01-06 11:11:00,
2013-01-06 05:16:00,12.6,10.2,30.27,WSW,257,0.0,0.0,90,0.00,,,0.00,0.0,meteohub,2013-01-06 11:16:00,
2013-01-06 05:21:00,12.6,10.2,30.27,WSW,257,0.0,0.0,90,0.00,,,0.00,0.0,meteohub,2013-01-06 11:21:00,
2013-01-06 05:26:00,12.6,10.2,30.27,WSW,257,0.0,0.0,90,0.00,,,0.00,0.0,meteohub,2013-01-06 11:26:00,
2013-01-06 05:31:00,12.6,10.2,30.27,WSW,257,0.0,0.0,90,0.00,,,0.00,0.0,meteohub,2013-01-06 11:31:00,
2013-01-06 05:36:00,12.6,10.2,30.27,WSW,257,0.0,0.0,90,0.00,,,0.00,0.0,meteohub,2013-01-06 11:36:00,
2013-01-06 05:42:00,12.4,9.7,30.27,WSW,257,0.0,0.0,89,0.00,,,0.00,0.0,meteohub,2013-01-06 11:42:00,
2013-01-06 05:47:00,12.2,9.5,30.27,WSW,257,0.0,0.0,89,0.00,,,0.00,0.0,meteohub,2013-01-06 11:47:00,
2013-01-06 05:52:00,12.0,9.3,30.27,WSW,257,0.0,0.0,89,0.00,,,0.00,0.0,meteohub,2013-01-06 11:52:00,
2013-01-06 05:57:00,11.8,9.1,30.27,WSW,257,0.0,0.0,89,0.00,,,0.00,0.0,meteohub,2013-01-06 11:57:00,
2013-01-06 06:02:00,11.7,8.8,30.27,WSW,257,0.0,0.0,88,0.00,,,0.00,0.0,meteohub,2013-01-06 12:02:00,
2013-01-06 06:07:00,11.5,8.6,30.28,WSW,257,0.0,0.0,88,0.00,,,0.00,0.0,meteohub,2013-01-06 12:07:00,
2013-01-06 06:12:00,11.3,8.4,30.28,WSW,257,0.0,0.0,88,0.00,,,0.00,0.0,meteohub,2013-01-06 12:12:00,
2013-01-06 06:17:00,11.1,8.2,30.28,WSW,257,0.0,0.0,88,0.00,,,0.00,0.0,meteohub,2013-01-06 12:17:00,
2013-01-06 06:21:00,10.9,8.4,30.29,WSW,257,0.0,0.0,89,0.00,,,0.00,0.0,meteohub,2013-01-06 12:21:00,
2013-01-06 06:26:00,10.9,8.4,30.29,WSW,257,0.0,0.0,89,0.00,,,0.00,0.0,meteohub,2013-01-06 12:26:00,
2013-01-06 06:32:00,10.8,8.2,30.29,WSW,257,0.0,0.0,89,0.00,,,0.00,0.0,meteohub,2013-01-06 12:32:00,
2013-01-06 06:37:00,10.8,8.2,30.29,WSW,257,0.0,0.0,89,0.00,,,0.00,0.0,meteohub,2013-01-06 12:37:00,
2013-01-06 06:42:00,10.6,8.1,30.29,WSW,257,0.0,0.0,89,0.00,,,0.00,0.0,meteohub,2013-01-06 12:42:00,
2013-01-06 06:47:00,10.4,7.9,30.29,WSW,257,0.0,0.0,89,0.00,,,0.00,0.0,meteohub,2013-01-06 12:47:00,
2013-01-06 06:52:00,10.2,7.7,30.29,WSW,257,0.0,0.0,89,0.00,,,0.00,0.0,meteohub,2013-01-06 12:52:00,
2013-01-06 06:57:00,10.2,7.7,30.30,WSW,257,0.0,0.0,89,0.00,,,0.00,0.0,meteohub,2013-01-06 12:57:00,
2013-01-06 07:02:00,10.2,7.7,30.30,WSW,257,0.0,0.0,89,0.00,,,0.00,0.0,meteohub,2013-01-06 13:02:00,
2013-01-06 07:07:00,10.0,7.5,30.30,WSW,257,0.0,0.0,89,0.00,,,0.00,0.0,meteohub,2013-01-06 13:07:00,
2013-01-06 07:12:00,10.0,7.5,30.30,WSW,257,0.0,0.0,89,0.00,,,0.00,0.0,meteohub,2013-01-06 13:12:00,
2013-01-06 07:17:00,9.9,7.3,30.30,WSW,257,0.0,0.0,89,0.00,,,0.00,0.0,meteohub,2013-01-06 13:17:00,
2013-01-06 07:22:00,9.7,7.2,30.30,WSW,257,0.0,0.0,89,0.00,,,0.00,0.0,meteohub,2013-01-06 13:22:00,
2013-01-06 07:27:00,9.7,6.8,30.30,WSW,257,0.0,0.0,88,0.00,,,0.00,0.0,meteohub,2013-01-06 13:27:00,
2013-01-06 07:32:00,9.5,6.6,30.30,WSW,257,0.0,0.0,88,0.00,,,0.00,0.0,meteohub,2013-01-06 13:32:00,
2013-01-06 07:37:00,9.3,6.4,30.30,WSW,257,0.0,0.0,88,0.00,,,0.00,0.0,meteohub,2013-01-06 13:37:00,
2013-01-06 07:42:00,9.1,6.3,30.29,WSW,257,0.0,0.0,88,0.00,,,0.00,0.0,meteohub,2013-01-06 13:42:00,
2013-01-06 07:47:00,9.1,6.3,30.29,WSW,257,0.0,0.0,88,0.00,,,0.00,0.0,meteohub,2013-01-06 13:47:00,
2013-01-06 07:52:00,9.0,6.1,30.30,WSW,257,0.0,0.0,88,0.00,,,0.00,0.0,meteohub,2013-01-06 13:52:00,
2013-01-06 07:57:00,8.6,5.5,30.30,WSW,257,0.0,1.0,87,0.00,,,0.00,0.0,meteohub,2013-01-06 13:57:00,
2013-01-06 08:02:00,8.4,5.4,30.30,WSW,257,0.0,1.0,87,0.00,,,0.00,5.0,meteohub,2013-01-06 14:02:00,
2013-01-06 08:07:00,8.4,5.4,30.30,WSW,257,0.0,1.0,87,0.00,,,0.00,7.0,meteohub,2013-01-06 14:07:00,
2013-01-06 08:12:00,8.2,5.2,30.30,WSW,257,0.0,1.0,87,0.00,,,0.00,9.0,meteohub,2013-01-06 14:12:00,
2013-01-06 08:17:00,8.2,5.2,30.30,WSW,257,0.0,1.0,87,0.00,,,0.00,11.0,meteohub,2013-01-06 14:17:00,
2013-01-06 08:22:00,8.2,5.4,30.31,WSW,257,0.0,0.0,88,0.00,,,0.00,12.0,meteohub,2013-01-06 14:22:00,
2013-01-06 08:27:00,8.2,5.4,30.31,WSW,257,0.0,1.0,88,0.00,,,0.00,14.0,meteohub,2013-01-06 14:27:00,
2013-01-06 08:32:00,8.2,5.4,30.31,WSW,257,0.0,1.0,88,0.00,,,0.00,16.0,meteohub,2013-01-06 14:32:00,
2013-01-06 08:37:00,8.2,5.4,30.31,WSW,257,0.0,1.0,88,0.00,,,0.00,18.0,meteohub,2013-01-06 14:37:00,
2013-01-06 08:42:00,8.2,5.4,30.31,WSW,257,0.0,0.0,88,0.00,,,0.00,18.0,meteohub,2013-01-06 14:42:00,
2013-01-06 08:47:00,8.2,5.7,30.31,WSW,257,0.0,0.0,89,0.00,,,0.00,19.0,meteohub,2013-01-06 14:47:00,
2013-01-06 08:52:00,8.2,5.7,30.32,WSW,257,0.0,0.0,89,0.00,,,0.00,21.0,meteohub,2013-01-06 14:52:00,
2013-01-06 08:57:00,8.2,5.7,30.32,WSW,257,0.0,0.0,89,0.00,,,0.00,23.0,meteohub,2013-01-06 14:57:00,
2013-01-06 09:02:00,8.2,5.7,30.32,WSW,257,0.0,0.0,89,0.00,,,0.00,25.0,meteohub,2013-01-06 15:02:00,
2013-01-06 09:07:00,8.4,5.9,30.31,WSW,257,0.0,0.0,89,0.00,,,0.00,26.0,meteohub,2013-01-06 15:07:00,
2013-01-06 09:12:00,8.4,5.9,30.32,WSW,257,0.0,0.0,89,0.00,,,0.00,26.0,meteohub,2013-01-06 15:12:00,
2013-01-06 09:17:00,8.4,5.9,30.32,WSW,257,0.0,0.0,89,0.00,,,0.00,32.0,meteohub,2013-01-06 15:17:00,
2013-01-06 09:22:00,8.6,6.1,30.32,WSW,257,0.0,0.0,89,0.00,,,0.00,30.0,meteohub,2013-01-06 15:22:00,
2013-01-06 09:27:00,8.8,6.3,30.32,WSW,257,0.0,0.0,89,0.00,,,0.00,33.0,meteohub,2013-01-06 15:27:00,
2013-01-06 09:32:00,8.8,6.3,30.32,WSW,257,0.0,0.0,89,0.00,,,0.00,33.0,meteohub,2013-01-06 15:32:00,
2013-01-06 09:37:00,9.0,6.4,30.32,WSW,257,0.0,0.0,89,0.00,,,0.00,35.0,meteohub,2013-01-06 15:37:00,
2013-01-06 09:42:00,9.1,6.8,30.33,WSW,257,0.0,0.0,90,0.00,,,0.00,37.0,meteohub,2013-01-06 15:42:00,
2013-01-06 09:47:00,9.3,7.0,30.32,WSW,257,0.0,1.0,90,0.00,,,0.00,40.0,meteohub,2013-01-06 15:47:00,
2013-01-06 09:52:00,9.9,7.5,30.32,WSW,257,0.0,1.0,90,0.00,,,0.00,39.0,meteohub,2013-01-06 15:52:00,
2013-01-06 09:57:00,10.2,7.9,30.32,WSW,257,0.0,1.0,90,0.00,,,0.00,39.0,meteohub,2013-01-06 15:57:00,
2013-01-06 10:02:00,10.6,8.2,30.32,WSW,257,0.0,1.0,90,0.00,,,0.00,42.0,meteohub,2013-01-06 16:02:00,
2013-01-06 10:07:00,10.8,8.4,30.32,WSW,257,0.0,1.0,90,0.00,,,0.00,44.0,meteohub,2013-01-06 16:07:00,
2013-01-06 10:12:00,11.1,8.8,30.33,West,267,0.0,1.0,90,0.00,,,0.00,70.0,meteohub,2013-01-06 16:12:00,
2013-01-06 10:17:00,11.7,9.1,30.33,West,267,1.0,3.0,89,0.00,,,0.00,95.0,meteohub,2013-01-06 16:17:00,
2013-01-06 10:22:00,11.8,9.0,30.33,West,267,0.0,3.0,88,0.00,,,0.00,72.0,meteohub,2013-01-06 16:22:00,
2013-01-06 10:27:00,12.0,9.1,30.33,West,267,0.0,3.0,88,0.00,,,0.00,107.0,meteohub,2013-01-06 16:27:00,
2013-01-06 10:32:00,12.6,9.5,30.33,West,267,0.0,3.0,87,0.00,,,0.00,90.0,meteohub,2013-01-06 16:32:00,
2013-01-06 10:37:00,12.7,9.3,30.33,West,266,1.0,3.0,86,0.00,,,0.00,84.0,meteohub,2013-01-06 16:37:00,
2013-01-06 10:42:00,12.9,9.5,30.33,West,266,1.0,2.0,86,0.00,,,0.00,67.0,meteohub,2013-01-06 16:42:00,
2013-01-06 10:47:00,13.3,9.7,30.33,West,267,0.0,2.0,85,0.00,,,0.00,107.0,meteohub,2013-01-06 16:47:00,
2013-01-06 10:52:00,13.6,9.7,30.33,West,267,0.0,2.0,84,0.00,,,0.00,79.0,meteohub,2013-01-06 16:52:00,
2013-01-06 10:57:00,14.0,10.0,30.33,West,267,0.0,2.0,84,0.00,,,0.00,60.0,meteohub,2013-01-06 16:57:00,
2013-01-06 11:02:00,14.2,10.0,30.32,West,267,0.0,2.0,83,0.00,,,0.00,81.0,meteohub,2013-01-06 17:02:00,
2013-01-06 11:07:00,14.4,10.2,30.32,West,267,0.0,2.0,83,0.00,,,0.00,95.0,meteohub,2013-01-06 17:07:00,
2013-01-06 11:12:00,14.4,10.2,30.32,West,269,1.0,2.0,83,0.00,,,0.00,105.0,meteohub,2013-01-06 17:12:00,
2013-01-06 11:17:00,14.9,10.4,30.33,West,269,1.0,2.0,82,0.00,,,0.00,165.0,meteohub,2013-01-06 17:17:00,
2013-01-06 11:22:00,15.1,10.2,30.32,West,277,2.0,3.0,81,0.00,,,0.00,100.0,meteohub,2013-01-06 17:22:00,
2013-01-06 11:27:00,15.3,10.4,30.33,West,272,0.0,3.0,81,0.00,,,0.00,190.0,meteohub,2013-01-06 17:27:00,
2013-01-06 11:32:00,15.3,10.4,30.32,WNW,298,0.0,3.0,81,0.00,,,0.00,216.0,meteohub,2013-01-06 17:32:00,
2013-01-06 11:37:00,15.6,10.8,30.32,WNW,298,0.0,3.0,81,0.00,,,0.00,127.0,meteohub,2013-01-06 17:37:00,
2013-01-06 11:42:00,15.8,10.8,30.32,WNW,288,1.0,3.0,80,0.00,,,0.00,134.0,meteohub,2013-01-06 17:42:00,
2013-01-06 11:47:00,16.0,10.9,30.32,West,261,1.0,3.0,80,0.00,,,0.00,214.0,meteohub,2013-01-06 17:47:00,
2013-01-06 11:52:00,16.2,11.1,30.32,West,269,1.0,4.0,80,0.00,,,0.00,218.0,meteohub,2013-01-06 17:52:00,
2013-01-06 11:57:00,16.3,10.9,30.32,WNW,291,2.0,4.0,79,0.00,,,0.00,218.0,meteohub,2013-01-06 17:57:00,
2013-01-06 12:02:00,16.5,11.1,30.32,West,273,0.0,4.0,79,0.00,,,0.00,199.0,meteohub,2013-01-06 18:02:00,
2013-01-06 12:07:00,16.5,11.1,30.32,West,269,1.0,5.0,79,0.00,,,0.00,155.0,meteohub,2013-01-06 18:07:00,
2013-01-06 12:12:00,16.9,11.5,30.31,WSW,257,1.0,5.0,79,0.00,,,0.00,183.0,meteohub,2013-01-06 18:12:00,
2013-01-06 12:17:00,16.9,11.3,30.30,West,263,2.0,4.0,78,0.00,,,0.00,214.0,meteohub,2013-01-06 18:17:00,
2013-01-06 12:22:00,16.9,11.3,30.30,West,267,0.0,4.0,78,0.00,,,0.00,139.0,meteohub,2013-01-06 18:22:00,
2013-01-06 12:27:00,17.1,11.5,30.30,WSW,253,0.0,4.0,78,0.00,,,0.00,230.0,meteohub,2013-01-06 18:27:00,
2013-01-06 12:32:00,17.2,11.5,30.29,WSW,254,1.0,3.0,78,0.00,,,0.00,258.0,meteohub,2013-01-06 18:32:00,
2013-01-06 12:37:00,17.2,11.5,30.29,WSW,254,0.0,3.0,78,0.00,,,0.00,274.0,meteohub,2013-01-06 18:37:00,
2013-01-06 12:42:00,17.6,11.8,30.29,WSW,254,0.0,3.0,78,0.00,,,0.00,294.0,meteohub,2013-01-06 18:42:00,
2013-01-06 12:47:00,18.1,12.2,30.28,ENE,78,2.0,3.0,77,0.00,,,0.00,285.0,meteohub,2013-01-06 18:47:00,
2013-01-06 12:52:00,18.7,12.4,30.28,NE,47,2.0,3.0,76,0.00,,,0.00,211.0,meteohub,2013-01-06 18:52:00,
2013-01-06 12:57:00,18.9,12.6,30.28,NE,44,0.0,3.0,76,0.00,,,0.00,134.0,meteohub,2013-01-06 18:57:00,
2013-01-06 13:02:00,18.5,12.2,30.27,NE,44,0.0,3.0,76,0.00,,,0.00,76.0,meteohub,2013-01-06 19:02:00,
2013-01-06 13:07:00,18.9,12.6,30.27,SSW,213,1.0,3.0,76,0.00,,,0.00,113.0,meteohub,2013-01-06 19:07:00,
2013-01-06 13:12:00,18.9,12.6,30.27,East,80,1.0,2.0,76,0.00,,,0.00,93.0,meteohub,2013-01-06 19:12:00,
2013-01-06 13:17:00,18.9,12.6,30.27,NE,47,0.0,2.0,76,0.00,,,0.00,109.0,meteohub,2013-01-06 19:17:00,
2013-01-06 13:22:00,19.0,12.4,30.27,NE,48,1.0,2.0,75,0.00,,,0.00,206.0,meteohub,2013-01-06 19:22:00,
2013-01-06 13:27:00,19.6,12.9,30.28,West,261,4.0,4.0,75,0.00,,,0.00,137.0,meteohub,2013-01-06 19:27:00,
2013-01-06 13:32:00,19.2,12.6,30.28,West,259,1.0,5.0,75,0.00,,,0.00,130.0,meteohub,2013-01-06 19:32:00,
2013-01-06 13:37:00,19.0,12.4,30.28,West,278,2.0,5.0,75,0.00,,,0.00,127.0,meteohub,2013-01-06 19:37:00,
2013-01-06 13:47:00,18.9,12.6,30.27,West,265,2.0,5.0,76,0.00,,,0.00,95.0,meteohub,2013-01-06 19:47:00,
2013-01-06 13:52:00,18.9,12.9,30.27,WSW,257,4.0,5.0,77,0.00,,,0.00,102.0,meteohub,2013-01-06 19:52:00,
2013-01-06 13:57:00,18.5,12.6,30.27,SSW,212,0.0,5.0,77,0.00,,,0.00,107.0,meteohub,2013-01-06 19:57:00,
2013-01-06 14:02:00,18.7,12.7,30.27,SW,214,0.0,5.0,77,0.00,,,0.00,142.0,meteohub,2013-01-06 20:02:00,
2013-01-06 14:08:00,18.7,12.4,30.27,SSW,204,1.0,4.0,76,0.00,,,0.00,97.0,meteohub,2013-01-06 20:08:00,
2013-01-06 14:11:00,18.7,12.7,30.26,WSW,247,0.0,3.0,77,0.00,,,0.00,127.0,meteohub,2013-01-06 20:11:00,
2013-01-06 14:13:00,18.7,12.7,30.26,WSW,247,0.0,3.0,77,0.00,,,0.00,121.0,meteohub,2013-01-06 20:13:00,
2013-01-06 14:18:00,18.5,12.6,30.26,SSW,213,0.0,3.0,77,0.00,,,0.00,179.0,meteohub,2013-01-06 20:18:00,
2013-01-06 14:23:00,19.0,13.1,30.25,SSE,153,0.0,2.0,77,0.00,,,0.00,155.0,meteohub,2013-01-06 20:23:00,
2013-01-06 14:28:00,19.0,13.1,30.25,ESE,116,1.0,4.0,77,0.00,,,0.00,125.0,meteohub,2013-01-06 20:28:00,
2013-01-06 14:33:00,18.9,12.9,30.25,West,270,0.0,4.0,77,0.00,,,0.00,190.0,meteohub,2013-01-06 20:33:00,
2013-01-06 14:38:00,18.9,12.9,30.25,SSE,156,1.0,4.0,77,0.00,,,0.00,125.0,meteohub,2013-01-06 20:38:00,
2013-01-06 14:43:00,19.0,13.1,30.25,SSE,156,0.0,4.0,77,0.00,,,0.00,149.0,meteohub,2013-01-06 20:43:00,
2013-01-06 14:48:00,18.9,12.9,30.25,NNW,345,1.0,4.0,77,0.00,,,0.00,93.0,meteohub,2013-01-06 20:48:00,
2013-01-06 14:53:00,18.9,12.9,30.25,South,173,0.0,4.0,77,0.00,,,0.00,113.0,meteohub,2013-01-06 20:53:00,
2013-01-06 14:58:00,18.7,12.7,30.25,South,185,0.0,4.0,77,0.00,,,0.00,105.0,meteohub,2013-01-06 20:58:00,
2013-01-06 15:01:00,18.7,12.9,30.25,South,188,0.0,4.0,78,0.00,,,0.00,81.0,meteohub,2013-01-06 21:01:00,
2013-01-06 15:06:00,18.7,12.9,30.25,South,188,0.0,4.0,78,0.00,,,0.00,56.0,meteohub,2013-01-06 21:06:00,
2013-01-06 15:11:00,18.7,12.7,30.25,NNW,340,1.0,4.0,77,0.00,,,0.00,49.0,meteohub,2013-01-06 21:11:00,
2013-01-06 15:16:00,18.5,12.7,30.25,SSE,159,0.0,5.0,78,0.00,,,0.00,46.0,meteohub,2013-01-06 21:16:00,
2013-01-06 15:21:00,18.5,12.7,30.24,SSE,159,0.0,5.0,78,0.00,,,0.00,44.0,meteohub,2013-01-06 21:21:00,
2013-01-06 15:26:00,18.3,12.6,30.24,South,180,0.0,5.0,78,0.00,,,0.00,44.0,meteohub,2013-01-06 21:26:00,
2013-01-06 15:31:00,18.3,12.6,30.24,SSW,198,1.0,2.0,78,0.00,,,0.00,39.0,meteohub,2013-01-06 21:31:00,
2013-01-06 15:36:00,18.1,12.4,30.24,SSW,197,0.0,3.0,78,0.00,,,0.00,42.0,meteohub,2013-01-06 21:36:00,
2013-01-06 15:41:00,18.0,12.6,30.24,South,174,0.0,3.0,79,0.00,,,0.00,44.0,meteohub,2013-01-06 21:41:00,
2013-01-06 15:46:00,18.0,12.6,30.24,ENE,65,1.0,3.0,79,0.00,,,0.00,49.0,meteohub,2013-01-06 21:46:00,
2013-01-06 15:51:00,17.8,12.4,30.24,ESE,105,0.0,3.0,79,0.00,,,0.00,49.0,meteohub,2013-01-06 21:51:00,
2013-01-06 15:56:00,17.4,12.4,30.24,South,190,0.0,3.0,80,0.00,,,0.00,44.0,meteohub,2013-01-06 21:56:00,
2013-01-06 16:01:00,17.2,12.2,30.24,SSE,156,0.0,3.0,80,0.00,,,0.00,35.0,meteohub,2013-01-06 22:01:00,
2013-01-06 16:06:00,17.1,12.2,30.24,SSE,161,0.0,3.0,81,0.00,,,0.00,32.0,meteohub,2013-01-06 22:06:00,
2013-01-06 16:11:00,16.9,12.0,30.24,South,175,0.0,3.0,81,0.00,,,0.00,37.0,meteohub,2013-01-06 22:11:00,
2013-01-06 16:16:00,17.1,12.2,30.24,SSW,200,0.0,2.0,81,0.00,,,0.00,32.0,meteohub,2013-01-06 22:16:00,
2013-01-06 16:21:00,17.1,12.2,30.24,NNW,337,0.0,4.0,81,0.00,,,0.00,28.0,meteohub,2013-01-06 22:21:00,
2013-01-06 16:26:00,17.1,12.6,30.24,SSE,163,1.0,4.0,82,0.00,,,0.00,26.0,meteohub,2013-01-06 22:26:00,
2013-01-06 16:31:00,17.1,12.6,30.24,WSW,246,0.0,4.0,82,0.00,,,0.00,19.0,meteohub,2013-01-06 22:31:00,
2013-01-06 16:36:00,16.9,12.4,30.23,WSW,246,0.0,2.0,82,0.00,,,0.00,11.0,meteohub,2013-01-06 22:36:00,
2013-01-06 16:41:00,16.3,11.8,30.23,WSW,246,0.0,2.0,82,0.00,,,0.00,7.0,meteohub,2013-01-06 22:41:00,
2013-01-06 16:47:00,16.0,11.7,30.22,WSW,246,0.0,2.0,83,0.00,,,0.00,5.0,meteohub,2013-01-06 22:47:00,
2013-01-06 16:51:00,15.8,11.8,30.22,WSW,247,0.0,1.0,84,0.00,,,0.00,5.0,meteohub,2013-01-06 22:51:00,
2013-01-06 16:56:00,15.8,11.8,30.22,NNE,15,0.0,1.0,84,0.00,,,0.00,0.0,meteohub,2013-01-06 22:56:00,
2013-01-06 17:01:00,15.8,11.8,30.22,ESE,115,0.0,1.0,84,0.00,,,0.00,0.0,meteohub,2013-01-06 23:01:00,
2013-01-06 17:06:00,15.8,11.8,30.22,SSE,157,1.0,3.0,84,0.00,,,0.00,0.0,meteohub,2013-01-06 23:06:00,
2013-01-06 17:11:00,16.0,12.2,30.22,SSW,194,0.0,3.0,85,0.00,,,0.00,0.0,meteohub,2013-01-06 23:11:00,
2013-01-06 17:17:00,16.0,12.2,30.22,SSW,194,0.0,3.0,85,0.00,,,0.00,0.0,meteohub,2013-01-06 23:17:00,
2013-01-06 17:22:00,16.2,12.4,30.22,SSW,194,0.0,2.0,85,0.00,,,0.00,0.0,meteohub,2013-01-06 23:22:00,
2013-01-06 17:27:00,16.2,12.4,30.22,South,190,0.0,2.0,85,0.00,,,0.00,0.0,meteohub,2013-01-06 23:27:00,
2013-01-06 17:32:00,16.2,12.4,30.21,South,190,0.0,4.0,85,0.00,,,0.00,0.0,meteohub,2013-01-06 23:32:00,
2013-01-06 17:37:00,16.2,12.4,30.21,South,185,0.0,4.0,85,0.00,,,0.00,0.0,meteohub,2013-01-06 23:37:00,
2013-01-06 17:42:00,16.2,12.4,30.21,South,185,0.0,4.0,85,0.00,,,0.00,0.0,meteohub,2013-01-06 23:42:00,
2013-01-06 17:47:00,16.2,12.7,30.20,South,185,0.0,2.0,86,0.00,,,0.00,0.0,meteohub,2013-01-06 23:47:00,
2013-01-06 17:52:00,16.2,12.7,30.20,WSW,258,1.0,1.0,86,0.00,,,0.00,0.0,meteohub,2013-01-06 23:52:00,
2013-01-06 17:57:00,16.2,12.7,30.19,ESE,122,0.0,3.0,86,0.00,,,0.00,0.0,meteohub,2013-01-06 23:57:00,
2013-01-06 18:02:00,16.5,13.1,30.19,SW,223,0.0,3.0,86,0.00,,,0.00,0.0,meteohub,2013-01-07 00:02:00,
2013-01-06 18:07:00,16.5,12.7,30.19,East,98,0.0,2.0,85,0.00,,,0.00,0.0,meteohub,2013-01-07 00:07:00,
2013-01-06 18:12:00,16.5,13.1,30.19,SE,136,0.0,4.0,86,0.00,,,0.00,0.0,meteohub,2013-01-07 00:12:00,
2013-01-06 18:17:00,16.7,13.3,30.18,SE,134,2.0,4.0,86,0.00,,,0.00,0.0,meteohub,2013-01-07 00:17:00,
2013-01-06 18:22:00,16.5,13.1,30.18,SE,134,0.0,4.0,86,0.00,,,0.00,0.0,meteohub,2013-01-07 00:22:00,
2013-01-06 18:27:00,16.5,13.1,30.17,South,179,0.0,2.0,86,0.00,,,0.00,0.0,meteohub,2013-01-07 00:27:00,
2013-01-06 18:32:00,16.5,13.1,30.17,South,179,0.0,2.0,86,0.00,,,0.00,0.0,meteohub,2013-01-07 00:32:00,
2013-01-06 18:37:00,16.5,13.1,30.17,South,178,0.0,2.0,86,0.00,,,0.00,0.0,meteohub,2013-01-07 00:37:00,
2013-01-06 18:42:00,16.5,13.1,30.16,SW,229,1.0,2.0,86,0.00,,,0.00,0.0,meteohub,2013-01-07 00:42:00,
2013-01-06 18:47:00,16.3,12.9,30.16,South,181,0.0,7.0,86,0.00,,,0.00,0.0,meteohub,2013-01-07 00:47:00,
2013-01-06 18:52:00,16.3,12.9,30.16,NW,315,0.0,7.0,86,0.00,,,0.00,0.0,meteohub,2013-01-07 00:52:00,
2013-01-06 18:57:00,16.7,13.3,30.16,South,190,0.0,3.0,86,0.00,,,0.00,0.0,meteohub,2013-01-07 00:57:00,
2013-01-06 19:02:00,16.7,13.3,30.14,WNW,284,6.0,6.0,86,0.00,,,0.00,0.0,meteohub,2013-01-07 01:02:00,
2013-01-06 19:07:00,16.5,13.1,30.14,SSE,154,0.0,6.0,86,0.00,,,0.00,0.0,meteohub,2013-01-07 01:07:00,
2013-01-06 19:12:00,16.5,13.1,30.13,SE,143,0.0,6.0,86,0.00,,,0.00,0.0,meteohub,2013-01-07 01:12:00,
2013-01-06 19:17:00,16.5,13.1,30.13,SSW,204,0.0,6.0,86,0.00,,,0.00,0.0,meteohub,2013-01-07 01:17:00,
2013-01-06 19:21:00,16.5,13.1,30.13,SSW,207,0.0,3.0,86,0.00,,,0.00,0.0,meteohub,2013-01-07 01:21:00,
2013-01-06 19:27:00,16.5,13.1,30.13,South,182,0.0,3.0,86,0.00,,,0.00,0.0,meteohub,2013-01-07 01:27:00,
2013-01-06 19:32:00,16.5,13.1,30.13,SSW,207,2.0,3.0,86,0.00,,,0.00,0.0,meteohub,2013-01-07 01:32:00,
2013-01-06 19:37:00,16.7,13.3,30.12,South,173,0.0,3.0,86,0.00,,,0.00,0.0,meteohub,2013-01-07 01:37:00,
2013-01-06 19:42:00,16.7,12.9,30.12,SSE,165,2.0,5.0,85,0.00,,,0.00,0.0,meteohub,2013-01-07 01:42:00,
2013-01-06 19:47:00,16.9,13.1,30.11,SSW,206,1.0,5.0,85,0.00,,,0.00,0.0,meteohub,2013-01-07 01:47:00,
2013-01-06 19:52:00,16.7,12.9,30.11,SSE,150,4.0,5.0,85,0.00,,,0.00,0.0,meteohub,2013-01-07 01:52:00,
2013-01-06 19:57:00,16.5,12.7,30.09,South,175,2.0,5.0,85,0.00,,,0.00,0.0,meteohub,2013-01-07 01:57:00,
2013-01-06 20:02:00,16.5,12.7,30.09,NNW,333,1.0,5.0,85,0.00,,,0.00,0.0,meteohub,2013-01-07 02:02:00,
2013-01-06 20:07:00,16.5,12.7,30.09,West,265,0.0,5.0,85,0.00,,,0.00,0.0,meteohub,2013-01-07 02:07:00,
2013-01-06 20:12:00,16.5,12.7,30.08,South,186,2.0,5.0,85,0.00,,,0.00,0.0,meteohub,2013-01-07 02:12:00,
2013-01-06 20:17:00,16.5,12.7,30.08,South,191,1.0,4.0,85,0.00,,,0.00,0.0,meteohub,2013-01-07 02:17:00,
2013-01-06 20:22:00,16.5,12.7,30.08,SE,132,1.0,6.0,85,0.00,,,0.00,0.0,meteohub,2013-01-07 02:22:00,
2013-01-06 20:27:00,16.7,12.9,30.08,SSW,193,1.0,7.0,85,0.00,,,0.00,0.0,meteohub,2013-01-07 02:27:00,
2013-01-06 20:32:00,16.7,12.9,30.07,South,171,4.0,7.0,85,0.00,,,0.00,0.0,meteohub,2013-01-07 02:32:00,
2013-01-06 20:37:00,16.7,12.9,30.06,NNE,21,3.0,7.0,85,0.00,,,0.00,0.0,meteohub,2013-01-07 02:37:00,
2013-01-06 20:42:00,16.9,13.1,30.06,SSE,158,1.0,4.0,85,0.00,,,0.00,0.0,meteohub,2013-01-07 02:42:00,
2013-01-06 20:46:00,16.7,12.9,30.06,SW,232,1.0,5.0,85,0.00,,,0.00,0.0,meteohub,2013-01-07 02:46:00,
2013-01-06 20:52:00,16.7,13.3,30.05,South,169,0.0,5.0,86,0.00,,,0.00,0.0,meteohub,2013-01-07 02:52:00,
2013-01-06 20:57:00,16.7,13.3,30.04,South,175,1.0,5.0,86,0.00,,,0.00,0.0,meteohub,2013-01-07 02:57:00,
2013-01-06 21:02:00,16.9,13.5,30.04,NNE,15,1.0,8.0,86,0.00,,,0.00,0.0,meteohub,2013-01-07 03:02:00,
2013-01-06 21:07:00,16.9,13.5,30.04,SSW,199,4.0,8.0,86,0.00,,,0.00,0.0,meteohub,2013-01-07 03:07:00,
2013-01-06 21:12:00,17.1,13.8,30.04,South,185,1.0,8.0,87,0.00,,,0.00,0.0,meteohub,2013-01-07 03:12:00,
2013-01-06 21:17:00,17.2,14.0,30.03,SW,214,1.0,5.0,87,0.00,,,0.00,0.0,meteohub,2013-01-07 03:17:00,
2013-01-06 21:22:00,17.4,14.2,30.02,SSE,157,0.0,8.0,87,0.00,,,0.00,0.0,meteohub,2013-01-07 03:22:00,
2013-01-06 21:27:00,17.8,14.5,30.02,SE,126,3.0,8.0,87,0.00,,,0.00,0.0,meteohub,2013-01-07 03:27:00,
2013-01-06 21:32:00,18.0,14.7,30.01,SE,134,2.0,8.0,87,0.00,,,0.00,0.0,meteohub,2013-01-07 03:32:00,
2013-01-06 21:37:00,18.1,14.9,30.01,SSE,153,1.0,4.0,87,0.00,,,0.00,0.0,meteohub,2013-01-07 03:37:00,
2013-01-06 21:42:00,18.1,14.7,30.01,South,188,2.0,5.0,86,0.00,,,0.00,0.0,meteohub,2013-01-07 03:42:00,
2013-01-06 21:47:00,18.1,14.7,30.00,SSE,157,0.0,5.0,86,0.00,,,0.00,0.0,meteohub,2013-01-07 03:47:00,
2013-01-06 21:52:00,18.3,14.9,29.99,SSE,147,0.0,5.0,86,0.00,,,0.00,0.0,meteohub,2013-01-07 03:52:00,
2013-01-06 21:57:00,18.3,14.9,29.99,SE,146,3.0,5.0,86,0.00,,,0.00,0.0,meteohub,2013-01-07 03:57:00,
2013-01-06 22:02:00,18.3,14.9,29.99,SSW,209,0.0,6.0,86,0.00,,,0.00,0.0,meteohub,2013-01-07 04:02:00,
2013-01-06 22:07:00,18.7,15.3,29.98,SSE,160,1.0,6.0,86,0.00,,,0.00,0.0,meteohub,2013-01-07 04:07:00,
2013-01-06 22:11:00,18.9,15.4,29.97,SSE,151,3.0,6.0,86,0.00,,,0.00,0.0,meteohub,2013-01-07 04:11:00,
2013-01-06 22:17:00,19.2,15.8,29.97,SSW,196,4.0,6.0,86,0.00,,,0.00,0.0,meteohub,2013-01-07 04:17:00,
2013-01-06 22:22:00,19.6,16.3,29.96,SSW,198,3.0,6.0,87,0.00,,,0.00,0.0,meteohub,2013-01-07 04:22:00,
2013-01-06 22:27:00,20.1,16.9,29.96,SSW,197,0.0,6.0,87,0.00,,,0.00,0.0,meteohub,2013-01-07 04:27:00,
2013-01-06 22:32:00,20.5,16.9,29.96,ESE,109,0.0,6.0,86,0.00,,,0.00,0.0,meteohub,2013-01-07 04:32:00,
2013-01-06 22:37:00,20.8,17.2,29.97,South,169,2.0,11.0,86,0.00,,,0.00,0.0,meteohub,2013-01-07 04:37:00,
2013-01-06 22:42:00,21.0,17.4,29.96,SSE,159,3.0,11.0,86,0.00,,,0.00,0.0,meteohub,2013-01-07 04:42:00,
2013-01-06 22:47:00,21.4,17.8,29.96,South,172,3.0,5.0,86,0.00,,,0.00,0.0,meteohub,2013-01-07 04:47:00,
2013-01-06 22:52:00,21.6,17.8,29.96,South,185,2.0,5.0,85,0.00,,,0.00,0.0,meteohub,2013-01-07 04:52:00,
2013-01-06 22:57:00,21.6,17.8,29.96,South,186,0.0,5.0,85,0.00,,,0.00,0.0,meteohub,2013-01-07 04:57:00,
2013-01-06 23:00:00,21.7,18.0,29.96,South,176,1.0,5.0,85,0.00,,,0.00,0.0,meteohub,2013-01-07 05:00:00,
2013-01-06 23:01:00,21.7,18.0,29.96,West,262,3.0,5.0,85,0.00,,,0.00,0.0,meteohub,2013-01-07 05:01:00,
2013-01-06 23:06:00,21.7,17.6,29.96,South,177,0.0,5.0,84,0.00,,,0.00,0.0,meteohub,2013-01-07 05:06:00,
2013-01-06 23:11:00,21.7,17.6,29.97,South,175,0.0,4.0,84,0.00,,,0.00,0.0,meteohub,2013-01-07 05:11:00,
2013-01-06 23:16:00,21.7,17.6,29.97,South,173,0.0,4.0,84,0.00,,,0.00,0.0,meteohub,2013-01-07 05:16:00,
2013-01-06 23:21:00,21.7,17.6,29.97,South,183,2.0,3.0,84,0.00,,,0.00,0.0,meteohub,2013-01-07 05:21:00,
2013-01-06 23:26:00,21.7,17.6,29.96,SSE,163,0.0,3.0,84,0.00,,,0.00,0.0,meteohub,2013-01-07 05:26:00,
2013-01-06 23:32:00,21.9,17.8,29.96,SE,127,1.0,3.0,84,0.00,,,0.00,0.0,meteohub,2013-01-07 05:32:00,
2013-01-06 23:37:00,21.9,17.8,29.96,SE,127,0.0,3.0,84,0.00,,,0.00,0.0,meteohub,2013-01-07 05:37:00,
2013-01-06 23:42:00,21.9,17.8,29.96,SE,127,0.0,2.0,84,0.00,,,0.00,0.0,meteohub,2013-01-07 05:42:00,
2013-01-06 23:47:00,21.9,17.8,29.96,East,101,0.0,2.0,84,0.00,,,0.00,0.0,meteohub,2013-01-07 05:47:00,
2013-01-06 23:52:00,21.9,17.8,29.96,SSE,157,0.0,3.0,84,0.00,,,0.00,0.0,meteohub,2013-01-07 05:52:00,
2013-01-06 23:57:00,21.9,17.8,29.95,SE,142,3.0,3.0,84,0.00,,,0.00,0.0,meteohub,2013-01-07 05:57:00,